CAPE
0 0 0 0 0 0 0 0 0 0 0 0 0 0 0 0 0 0 0 0 0 0 0 0 0 0 0 0 0 0 0 0 0 105 288 331 379 120 342 160 90 50 272 380
0 0 0 0 0 0 0 0 0 0 0 0 0 0 0 0 0 0 0 0 0 0 0 0 0 0 0 0 0 0 0 0 0 118 439 412 297 124 4 27 52 83 50 317
0 0 0 0 0 0 0 0 0 0 0 0 0 0 0 0 0 0 0 0 0 0 0 0 0 0 0 0 0 0 0 0 32 540 872 710 552 89 483 159 154 124 89 165
0 0 0 0 0 0 0 0 0 0 0 0 0 0 0 0 0 0 1 0 0 0 0 0 0 0 0 0 0 0 0 38 135 397 199 504 649 297 279 542 480 147 241 111
0 0 0 0 0 0 0 0 0 0 0 0 0 0 0 0 0 0 0 34 6 0 0 0 0 0 0 0 0 0 2 30 442 381 136 144 469 971 666 452 405 332 544 340
0 0 0 0 0 0 0 0 0 0 0 0 0 0 0 0 0 0 0 75 39 8 0 0 0 0 0 0 0 0 0 0 180 369 228 167 88 143 268 255 224 172 519 615
0 0 0 0 0 0 0 0 0 4 7 0 0 0 0 0 0 0 3 10 37 15 0 0 0 0 0 0 0 0 0 0 0 37 111 53 162 224 172 192 139 195 224 583
0 0 0 0 0 0 0 0 0 2 6 12 0 0 0 0 0 52 113 215 64 11 0 0 0 0 0 0 0 0 0 0 0 0 1 16 40 38 88 488 242 219 288 86
0 0 0 0 0 0 0 0 0 0 0 3 2 1 0 1 13 80 164 115 25 2 0 0 0 0 0 0 0 0 0 0 0 0 0 0 0 2 99 676 643 308 170 224
0 0 0 0 0 0 0 0 0 0 1 14 8 0 10 30 33 443 326 190 22 2 0 0 0 0 0 0 0 20 1 0 0 0 0 0 0 0 27 219 271 157 110 21
0 0 0 0 0 0 0 0 0 0 3 6 31 45 8 10 111 297 591 314 40 0 0 0 0 0 0 0 0 5 18 0 0 0 0 0 0 0 1 28 71 90 24 60
0 0 0 0 0 0 0 0 0 0 0 0 5 24 11 37 200 562 746 350 46 0 0 0 0 0 0 0 0 0 10 0 0 0 0 0 0 0 0 9 48 96 163 89
0 0 0 0 0 0 0 0 0 0 4 9 13 14 17 82 325 728 800 339 19 0 0 0 0 0 0 0 0 0 1 0 0 0 0 0 0 0 0 0 5 12 46 89
0 0 0 0 0 0 0 0 0 0 9 0 3 5 30 38 181 528 667 377 57 0 0 0 0 0 0 0 0 0 0 0 0 0 0 0 0 0 0 0 0 1 0 6
1 0 0 0 0 0 0 0 0 0 0 1 0 1 0 22 79 215 676 407 61 0 0 0 0 0 0 0 0 0 0 0 0 0 0 0 0 0 0 0 0 0 0 0
19 0 0 0 0 0 0 0 0 0 0 0 0 0 4 17 29 331 632 400 164 2 0 0 0 0 0 0 0 0 0 0 0 0 0 0 0 0 0 0 0 0 0 0
0 0 0 0 0 0 0 0 0 0 0 0 0 0 0 1 101 336 580 385 289 122 8 0 0 0 0 0 0 0 0 0 0 0 0 0 0 0 0 0 0 0 0 0
0 0 0 0 1 0 0 0 0 0 0 0 0 0 0 1 75 202 430 503 465 252 94 25 1 0 0 0 0 0 0 0 0 0 0 0 0 0 0 0 0 0 9 10
15 134 0 69 53 0 0 0 0 0 0 0 0 0 0 6 41 119 293 463 557 559 325 102 39 45 0 0 0 0 0 0 0 0 0 0 0 0 0 0 0 0 0 7
0 124 63 60 104 0 0 0 0 0 0 0 0 0 0 18 192 123 489 483 479 580 490 324 117 58 19 0 0 0 0 0 0 0 0 0 0 0 0 0 0 0 0 0
0 10 110 93 222 5 22 5 6 4 0 13 23 27 19 87 302 87 248 591 453 625 512 496 271 141 417 21 0 0 0 0 0 0 0 0 0 0 0 0 0 0 0 0
6 3 3 124 46 12 40 96 1 17 744 277 383 359 352 508 493 420 523 582 544 676 452 374 325 249 210 70 9 0 0 0 0 0 0 0 0 0 0 0 0 0 0 0
54 18 13 10 10 267 236 58 326 134 169 316 538 577 578 626 592 495 478 546 577 561 523 234 342 285 237 145 96 0 0 0 0 0 0 0 0 0 0 0 0 0 0 0
0 0 16 13 12 29 41 105 340 523 372 400 567 608 647 668 610 538 455 492 483 459 660 361 299 288 290 205 183 147 0 0 0 0 0 0 0 0 0 0 0 0 0 0
3 0 0 0 2 11 0 1 57 392 499 402 372 409 395 410 399 451 444 445 430 401 448 523 305 356 313 191 176 96 8 0 17 22 2 3 0 0 0 0 0 0 15 0
50 23 0 0 3 5 14 5 5 316 388 415 366 384 384 376 402 387 401 488 568 524 505 552 393 403 334 220 175 128 47 2 231 273 56 9 0 0 0 0 0 0 0 0
CIN
-0 -0 -0 -0 -0 -0 -0 -0 -0 -0 -0 -0 -0 -0 -0 -0 -0 -0 -0 -0 -0 -0 -0 -0 -0 -0 -0 -0 -0 -0 -0 -0 -0 -34 -0 -0 -0 -0 -4 -0 -0 -0 -0 -0
-0 -0 -0 -0 -0 -0 -0 -0 -0 -0 -0 -0 -0 -0 -0 -0 -0 -0 -0 -0 -0 -0 -0 -0 -0 -0 -0 -0 -0 -0 -0 -0 -0 -30 -0 -0 -1 -8 -10 -12 -0 -0 -0 -0
-0 -0 -0 -0 -0 -0 -0 -0 -0 -0 -0 -0 -0 -0 -0 -0 -0 -0 -0 -0 -0 -0 -0 -0 -0 -0 -0 -0 -0 -0 -0 -0 -25 -2 -0 -0 -0 -12 -0 -0 -0 -6 -5 -1
-0 -0 -0 -0 -0 -0 -0 -0 -0 -0 -0 -0 -0 -0 -0 -0 -0 -0 -92 -0 -0 -0 -0 -0 -0 -0 -0 -0 -0 -0 -0 -19 -12 -2 -2 -0 -0 -0 -0 -0 -1 -0 -0 -9
-0 -0 -0 -0 -0 -0 -0 -0 -0 -0 -0 -0 -0 -0 -0 -0 -0 -0 -0 -58 -188 -8 -0 -0 -0 -0 -0 -0 -0 -0 -71 -20 -0 -4 -16 -3 -0 -0 -0 -0 -1 -0 -0 -0
-0 -0 -0 -0 -0 -0 -0 -0 -0 -0 -0 -0 -0 -0 -0 -0 -0 -0 -0 -56 -154 -93 -0 -0 -0 -0 -0 -0 -0 -0 -0 -0 -7 -0 -3 -6 -5 -5 -0 -2 -2 -0 -1 -0
-0 -0 -0 -0 -0 -0 -0 -0 -0 -0 -0 -0 -0 -0 -0 -0 -0 -0 -66 -67 -96 -79 -0 -0 -0 -0 -0 -0 -0 -0 -0 -0 -0 -13 -7 -5 -0 -4 -4 -1 -0 -22 -4 -0
-0 -0 -0 -0 -0 -0 -0 -0 -0 -0 -0 -0 -0 -0 -0 -0 -0 -61 -45 -71 -176 -52 -0 -0 -0 -0 -0 -0 -0 -0 -0 -0 -0 -0 -4 -31 -19 -1 -23 -0 -1 -4 -0 -0
-0 -0 -0 -0 -0 -0 -0 -0 -0 -0 -0 -0 -0 -0 -0 -0 -10 -19 -52 -146 -138 -65 -0 -0 -0 -0 -0 -0 -0 -0 -0 -0 -0 -0 -0 -0 -0 -19 -9 -0 -0 -9 -7 -3
-0 -0 -0 -0 -0 -0 -0 -0 -0 -0 -0 -0 -0 -0 -0 -0 -0 -11 -51 -121 -216 -38 -0 -0 -0 -0 -0 -0 -0 -126 -25 -0 -0 -0 -0 -0 -0 -0 -15 -4 -1 -13 -32 -73
-0 -0 -0 -0 -0 -0 -0 -0 -0 -0 -0 -0 -27 -0 -1 -1 -1 -2 -14 -73 -179 -5 -0 -0 -0 -0 -0 -0 -0 -169 -53 -0 -0 -0 -0 -0 -0 -0 -4 -20 -11 -24 -40 -28
-0 -0 -0 -0 -0 -0 -0 -0 -0 -0 -0 -0 -0 -3 -0 -7 -4 -6 -10 -76 -130 -0 -0 -0 -0 -0 -0 -0 -0 -0 -115 -0 -0 -0 -0 -0 -0 -0 -0 -15 -12 -10 -19 -32
-0 -0 -0 -0 -0 -0 -0 -0 -0 -0 -0 -0 -3 -9 -4 -11 -8 -12 -13 -60 -136 -0 -0 -0 -0 -0 -0 -0 -0 -0 -156 -0 -0 -0 -0 -0 -0 -0 -0 -0 -15 -1 -27 -12
-15 -0 -0 -0 -0 -0 -0 -0 -0 -0 -0 -0 -20 -6 -0 -5 -4 -10 -19 -62 -122 -12 -0 -0 -0 -0 -0 -0 -0 -0 -0 -0 -0 -0 -0 -0 -0 -0 -0 -0 -0 -0 -0 -6
-53 -0 -0 -0 -0 -0 -0 -0 -0 -0 -0 -0 -0 -0 -0 -0 -4 -0 -18 -61 -114 -0 -0 -0 -0 -0 -0 -0 -0 -0 -0 -0 -0 -0 -0 -0 -0 -0 -0 -0 -0 -0 -0 -0
-16 -0 -0 -0 -0 -0 -0 -0 -0 -0 -0 -0 -0 -0 -0 -1 -4 -2 -15 -50 -77 -20 -0 -0 -0 -0 -0 -0 -0 -0 -0 -0 -0 -0 -0 -0 -0 -0 -0 -0 -0 -0 -0 -0
-0 -0 -0 -0 -0 -0 -0 -0 -0 -0 -0 -0 -0 -0 -0 -0 -6 -4 -9 -40 -54 -89 -148 -30 -0 -0 -0 -0 -0 -0 -0 -0 -0 -0 -0 -0 -0 -0 -0 -0 -0 -0 -0 -0
-0 -0 -0 -0 -0 -0 -0 -0 -0 -0 -0 -0 -0 -0 -0 -0 -4 -2 -0 -16 -31 -60 -121 -161 -36 -10 -0 -0 -0 -0 -0 -0 -0 -0 -0 -0 -0 -0 -0 -0 -0 -0 -151 -139
-63 -14 -0 -0 -0 -0 -0 -0 -0 -0 -0 -0 -0 -0 -0 -0 -11 -4 -9 -11 -20 -44 -68 -136 -194 -261 -0 -0 -0 -0 -0 -0 -0 -0 -0 -0 -0 -0 -0 -0 -0 -0 -19 -216
-0 -13 -0 -0 -0 -0 -0 -0 -0 -0 -0 -0 -0 -0 -0 -0 -0 -22 -19 -27 -21 -24 -58 -97 -173 -231 -328 -0 -0 -0 -0 -0 -0 -0 -0 -0 -0 -0 -0 -0 -0 -0 -0 -0
-0 -36 -2 -1 -0 -0 -5 -3 -57 -17 -0 -52 -38 -32 -16 -8 -25 -5 -3 -19 -18 -34 -65 -70 -155 -218 -206 -298 -0 -0 -0 -0 -0 -0 -0 -0 -0 -0 -0 -0 -0 -0 -0 -0
-7 -9 -4 -0 -0 -0 -5 -3 -39 -53 -16 -23 -17 -15 -28 -33 -26 -15 -25 -40 -39 -45 -76 -111 -144 -192 -274 -168 -58 -0 -0 -0 -0 -0 -0 -0 -0 -0 -0 -0 -0 -0 -0 -0
-0 -1 -0 -0 -0 -9 -10 -1 -8 -1 -12 -26 -17 -27 -20 -23 -34 -31 -59 -61 -48 -65 -95 -122 -119 -186 -267 -344 -90 -0 -29 -0 -0 -0 -0 -0 -0 -0 -0 -0 -0 -0 -0 -0
-0 -13 -8 -10 -1 -7 -8 -9 -5 -1 -7 -22 -27 -17 -29 -39 -37 -50 -68 -78 -85 -58 -61 -105 -131 -159 -259 -343 -339 -253 -45 -0 -0 -0 -0 -0 -0 -0 -0 -0 -0 -0 -0 -0
-0 -0 -0 -0 -4 -2 -0 -12 -16 -10 -14 -67 -39 -34 -36 -38 -38 -60 -69 -83 -79 -58 -52 -87 -132 -148 -214 -316 -322 -279 -280 -0 -308 -430 -208 -412 -43 -0 -0 -0 -0 -0 -62 -0
-0 -0 -0 -0 -0 -1 -0 -2 -5 -24 -39 -51 -18 -36 -46 -53 -44 -56 -47 -53 -68 -65 -64 -83 -117 -113 -168 -253 -293 -43 -105 -329 -261 -281 -388 -450 -0 -0 -0 -0 -0 -0 -0 -0
Wind_Speed
nan nan nan nan nan nan nan nan nan nan nan nan nan nan nan nan nan nan nan nan nan nan nan nan nan nan nan nan nan nan nan nan nan 11 13 11 13 10 21 26 nan nan 17 9
nan nan nan nan nan nan nan nan nan nan nan nan nan nan nan nan nan nan nan nan nan nan nan nan nan nan nan nan nan nan nan nan nan 8 12 11 14 11 nan nan nan nan nan 11
nan nan nan nan nan nan nan nan nan nan nan nan nan nan nan nan nan nan nan nan nan nan nan nan nan nan nan nan nan nan nan nan nan 11 15 10 15 nan 21 18 16 21 nan 17
nan nan nan nan nan nan nan nan nan nan nan nan nan nan nan nan nan nan nan nan nan nan nan nan nan nan nan nan nan nan nan nan 10 9 17 9 7 9 13 17 16 15 14 10
nan nan nan nan nan nan nan nan nan nan nan nan nan nan nan nan nan nan nan nan nan nan nan nan nan nan nan nan nan nan nan nan 10 10 13 8 3 8 12 14 12 10 11 13
nan nan nan nan nan nan nan nan nan nan nan nan nan nan nan nan nan nan nan nan nan nan nan nan nan nan nan nan nan nan nan nan 11 9 10 8 nan 3 7 12 10 12 11 11
nan nan nan nan nan nan nan nan nan nan nan nan nan nan nan nan nan nan nan nan nan nan nan nan nan nan nan nan nan nan nan nan nan nan 11 nan 7 8 15 11 9 15 15 12
nan nan nan nan nan nan nan nan nan nan nan nan nan nan nan nan nan nan 14 8 nan nan nan nan nan nan nan nan nan nan nan nan nan nan nan nan nan nan nan 13 14 11 8 nan
nan nan nan nan nan nan nan nan nan nan nan nan nan nan nan nan nan nan 15 15 nan nan nan nan nan nan nan nan nan nan nan nan nan nan nan nan nan nan nan 11 14 13 10 10
nan nan nan nan nan nan nan nan nan nan nan nan nan nan nan nan nan 20 17 18 nan nan nan nan nan nan nan nan nan nan nan nan nan nan nan nan nan nan nan 8 8 12 10 nan
nan nan nan nan nan nan nan nan nan nan nan nan nan nan nan nan 18 17 21 22 nan nan nan nan nan nan nan nan nan nan nan nan nan nan nan nan nan nan nan nan nan nan nan nan
nan nan nan nan nan nan nan nan nan nan nan nan nan nan nan nan 18 11 19 23 nan nan nan nan nan nan nan nan nan nan nan nan nan nan nan nan nan nan nan nan nan nan 9 nan
nan nan nan nan nan nan nan nan nan nan nan nan nan nan nan nan 16 13 19 24 nan nan nan nan nan nan nan nan nan nan nan nan nan nan nan nan nan nan nan nan nan nan nan nan
nan nan nan nan nan nan nan nan nan nan nan nan nan nan nan nan 13 16 15 21 nan nan nan nan nan nan nan nan nan nan nan nan nan nan nan nan nan nan nan nan nan nan nan nan
nan nan nan nan nan nan nan nan nan nan nan nan nan nan nan nan nan 11 13 20 nan nan nan nan nan nan nan nan nan nan nan nan nan nan nan nan nan nan nan nan nan nan nan nan
nan nan nan nan nan nan nan nan nan nan nan nan nan nan nan nan nan 11 15 21 13 nan nan nan nan nan nan nan nan nan nan nan nan nan nan nan nan nan nan nan nan nan nan nan
nan nan nan nan nan nan nan nan nan nan nan nan nan nan nan nan 12 8 11 14 12 9 nan nan nan nan nan nan nan nan nan nan nan nan nan nan nan nan nan nan nan nan nan nan
nan nan nan nan nan nan nan nan nan nan nan nan nan nan nan nan nan 6 11 9 11 9 nan nan nan nan nan nan nan nan nan nan nan nan nan nan nan nan nan nan nan nan nan nan
nan 41 nan nan nan nan nan nan nan nan nan nan nan nan nan nan nan 11 4 7 11 12 13 15 nan nan nan nan nan nan nan nan nan nan nan nan nan nan nan nan nan nan nan nan
nan 45 nan nan 40 nan nan nan nan nan nan nan nan nan nan nan 11 2 14 9 2 10 13 14 13 nan nan nan nan nan nan nan nan nan nan nan nan nan nan nan nan nan nan nan
nan nan 43 nan 42 nan nan nan nan nan nan nan nan nan nan nan 9 nan 18 8 6 9 13 14 14 12 13 nan nan nan nan nan nan nan nan nan nan nan nan nan nan nan nan nan
nan nan nan 48 nan nan nan nan nan nan 41 18 14 12 8 4 6 19 20 14 10 10 9 11 10 8 12 nan nan nan nan nan nan nan nan nan nan nan nan nan nan nan nan nan
nan nan nan nan nan 65 52 nan 39 43 28 18 21 20 13 11 8 17 22 25 18 17 16 14 10 15 13 10 nan nan nan nan nan nan nan nan nan nan nan nan nan nan nan nan
nan nan nan nan nan nan nan 49 49 39 32 27 26 22 14 7 7 8 16 20 17 21 22 17 13 15 11 7 11 10 nan nan nan nan nan nan nan nan nan nan nan nan nan nan
nan nan nan nan nan nan nan nan nan 32 35 34 20 21 19 17 13 14 19 18 24 20 20 18 15 14 14 10 8 nan nan nan nan nan nan nan nan nan nan nan nan nan nan nan
nan nan nan nan nan nan nan nan nan 45 38 23 19 30 22 18 11 16 22 19 20 23 21 23 18 19 19 15 14 12 nan nan 18 17 nan nan nan nan nan nan nan nan nan nan
Wind_Direction
nan nan nan nan nan nan nan nan nan nan nan nan nan nan nan nan nan nan nan nan nan nan nan nan nan nan nan nan nan nan nan nan nan 8 18 21 11 357 24 34 nan nan 88 107
nan nan nan nan nan nan nan nan nan nan nan nan nan nan nan nan nan nan nan nan nan nan nan nan nan nan nan nan nan nan nan nan nan 32 26 18 24 37 nan nan nan nan nan 83
nan nan nan nan nan nan nan nan nan nan nan nan nan nan nan nan nan nan nan nan nan nan nan nan nan nan nan nan nan nan nan nan nan 33 334 332 6 nan 16 33 51 49 nan 73
nan nan nan nan nan nan nan nan nan nan nan nan nan nan nan nan nan nan nan nan nan nan nan nan nan nan nan nan nan nan nan nan 354 0 351 333 315 350 46 38 29 45 48 38
nan nan nan nan nan nan nan nan nan nan nan nan nan nan nan nan nan nan nan nan nan nan nan nan nan nan nan nan nan nan nan nan 346 347 356 17 46 31 51 22 21 29 44 42
nan nan nan nan nan nan nan nan nan nan nan nan nan nan nan nan nan nan nan nan nan nan nan nan nan nan nan nan nan nan nan nan 341 338 343 337 nan 24 33 55 43 65 68 75
nan nan nan nan nan nan nan nan nan nan nan nan nan nan nan nan nan nan nan nan nan nan nan nan nan nan nan nan nan nan nan nan nan nan 338 nan 3 27 44 37 73 74 79 85
nan nan nan nan nan nan nan nan nan nan nan nan nan nan nan nan nan nan 283 272 nan nan nan nan nan nan nan nan nan nan nan nan nan nan nan nan nan nan nan 47 58 68 87 nan
nan nan nan nan nan nan nan nan nan nan nan nan nan nan nan nan nan nan 290 290 nan nan nan nan nan nan nan nan nan nan nan nan nan nan nan nan nan nan nan 59 67 77 94 105
nan nan nan nan nan nan nan nan nan nan nan nan nan nan nan nan nan 273 287 298 nan nan nan nan nan nan nan nan nan nan nan nan nan nan nan nan nan nan nan 67 61 78 65 nan
nan nan nan nan nan nan nan nan nan nan nan nan nan nan nan nan 258 256 287 306 nan nan nan nan nan nan nan nan nan nan nan nan nan nan nan nan nan nan nan nan nan nan nan nan
nan nan nan nan nan nan nan nan nan nan nan nan nan nan nan nan 259 267 294 305 nan nan nan nan nan nan nan nan nan nan nan nan nan nan nan nan nan nan nan nan nan nan 77 nan
nan nan nan nan nan nan nan nan nan nan nan nan nan nan nan nan 270 279 301 315 nan nan nan nan nan nan nan nan nan nan nan nan nan nan nan nan nan nan nan nan nan nan nan nan
nan nan nan nan nan nan nan nan nan nan nan nan nan nan nan nan 277 294 305 315 nan nan nan nan nan nan nan nan nan nan nan nan nan nan nan nan nan nan nan nan nan nan nan nan
nan nan nan nan nan nan nan nan nan nan nan nan nan nan nan nan nan 282 318 316 nan nan nan nan nan nan nan nan nan nan nan nan nan nan nan nan nan nan nan nan nan nan nan nan
nan nan nan nan nan nan nan nan nan nan nan nan nan nan nan nan nan 258 314 320 336 nan nan nan nan nan nan nan nan nan nan nan nan nan nan nan nan nan nan nan nan nan nan nan
nan nan nan nan nan nan nan nan nan nan nan nan nan nan nan nan 228 269 303 328 340 329 nan nan nan nan nan nan nan nan nan nan nan nan nan nan nan nan nan nan nan nan nan nan
nan nan nan nan nan nan nan nan nan nan nan nan nan nan nan nan nan 233 287 329 328 333 nan nan nan nan nan nan nan nan nan nan nan nan nan nan nan nan nan nan nan nan nan nan
nan 235 nan nan nan nan nan nan nan nan nan nan nan nan nan nan nan 222 263 314 307 320 315 321 nan nan nan nan nan nan nan nan nan nan nan nan nan nan nan nan nan nan nan nan
nan 220 nan nan 237 nan nan nan nan nan nan nan nan nan nan nan 237 347 294 300 332 305 303 306 308 nan nan nan nan nan nan nan nan nan nan nan nan nan nan nan nan nan nan nan
nan nan 225 nan 224 nan nan nan nan nan nan nan nan nan nan nan 80 nan 247 279 309 290 292 305 289 312 324 nan nan nan nan nan nan nan nan nan nan nan nan nan nan nan nan nan
nan nan nan 222 nan nan nan nan nan nan 236 234 244 234 263 356 143 243 238 245 262 277 293 322 279 282 308 nan nan nan nan nan nan nan nan nan nan nan nan nan nan nan nan nan
nan nan nan nan nan 226 236 nan 239 240 236 227 231 251 275 252 240 253 254 256 261 258 263 273 273 259 271 314 nan nan nan nan nan nan nan nan nan nan nan nan nan nan nan nan
nan nan nan nan nan nan nan 223 228 234 228 227 231 241 248 205 216 255 262 258 249 266 258 250 272 261 255 305 320 304 nan nan nan nan nan nan nan nan nan nan nan nan nan nan
nan nan nan nan nan nan nan nan nan 223 238 228 219 231 227 225 239 245 260 260 247 252 236 236 263 259 244 262 298 nan nan nan nan nan nan nan nan nan nan nan nan nan nan nan
nan nan nan nan nan nan nan nan nan 228 233 230 225 223 233 229 257 250 247 251 245 241 235 246 262 250 246 251 255 278 nan nan 280 280 nan nan nan nan nan nan nan nan nan nan